Погода в Маразе

Погода в Маразе : погода сейчас, прогноз погоды и архив. Всё, что Вы хотите узнать о погоде в Маразе!

Поиск расширенной информации на нашем сайте:

Другие новости

Новости СМИ2

Главная страница сайта

Новости сайта

02.10.2013

Напоминаем, что на нашем новом сайте вы можете получить высокодетализированные прогнозы погоды по пунктам России, СНГ и мира (включающие важные для авиации метеовеличины, такие как направление и скорость ветра, видимость, явления погоды, количество и форма облачности, нижняя и верхняя граница облачности), а также ознакомиться с разнообразными материалами по авиационной метеорологии и подборкой полезных ссылок на эту тему.

Сайт Метеоцентр.Азия посвящён разработке технологий оптимизации авиаметеорологического обслуживания, включая проектирование и перспективное создание нескольких автоматизированных авиаметеорологических систем:
- система выпуска высокодетальных прогностических карт явлений погоды для нижнего воздушного пространства по России и ближнему зарубежью;
- система верификации прогнозов TAF (выпускаемых синоптиками официальных АМСГ РФ и ближнего зарубежья) и AUTOTAF (выпускаемых сайтом Метеоцентр.Азия) - выявление ошибок, онлайн-сопоставление с фактической погодой METAR, автоматическое внесение коррективов в прогнозы при резком отклонении фактической погоды от прогноза, подсчёт оправдываемости прогнозов по элементам и в целом;
- система обработки, анализа и отображения авиаметеорологической информации для применения провайдерами метеорологической информации.


Погода в Маразе - сегодня

Время (UTC), дата Ветер
(°,м/с) 
Видим.   Явления Облачность Т
(°С)
Тd
(°С)
f(%) Тe
(°С)
Pmin
(гПа)
dP
(гПа)
Po
(мм)
O2
(г/м3)
Тmin Tmax R s Состояние
почвы
15 21.01.17 тихо ()   10 км    8/8 600 м 
[Frnb]
+0.1 -1.4 90 1024.3  -0.2  700  282           
18 21.01.17 тихо ()   4000 м  дымка  10/10 300 м 
[Frnb]
-0.8 -1.7 94 -1  1024.5  -0.1  700  283    +1.6       
21 21.01.17 270 (З) 4000 м  дымка  10/10 300 м 
[Frnb]
-1 -1.6 96 -2  1024.6  700  283           
00 22.01.17 270 (З) 0500 м  туман  ?/?  
-1.3 -1.3 100 -4  1023.8  -0.8  699  283           
03 22.01.17 280 (З) 0500 м  туман  ?/?  
-1.8 -1.8 100 -5  1023.9  -0.1  699  284           
06 22.01.17 280 (З) 20000 м  {туман}  4/0 верхняя 
[Ci sp]
-1 -2.3 91 -3  1022.7  -0.8  698  283           
09 22.01.17 270 (З) 20000 м    8/0 верхняя 
[Ci sp]
+2.9 -3.3 64 +2  1021  -0.4  698  279           
12 22.01.17 080 (В) 20000 м    10/10 600 м 
[Frnb]
+2.5 -1.8 73 +2  1023.3  1.7  699  279           
15 22.01.17 030 (СВ) 10 км    10/10 600 м 
[Frnb]
-1.1 -4.3 79 -1  1026.5  701  284           
18 22.01.17 360 (С) 10 км  слаб. снег  10/10 600 м 
[Ns]
-1.7 -3.8 86 -1  1030.5  3.6  704  286    +3.6       
21 22.01.17 110 (В) 10 км  слаб. снег  10/10 600 м 
[Ns]
-3 -4.7 88 -3  1032.4  1.3  705  287           
00 23.01.17 110 (В) 10 км  слаб. снег  10/10 600 м 
[Ns]
-3.2 -4.6 90 -4  1032.9  0.3  705  288           
03 23.01.17 280 (З) 10 км  слаб. снег  10/10 600 м 
[Ns]
-3.3 -4.4 92 -5  1032  -0.9  704  288         
06 23.01.17 270 (З) 20000 м  {снег}  10/10 600 м 
[Frnb]
-2.8 -4.4 89 -2  1032.3  0.5  704  287           
09 23.01.17 270 (З) 20000 м    8/8 600 м 
[Frnb]
-1.1 -3.7 82 -2  1031.2  -0.5  704  285           
12 23.01.17 280 (З) 20000 м    4/4 600 м 
[Frnb]
+1.3 -2.5 76 1029.8  -0.8  704  282           
15 23.01.17 280 (З) 10 км    3/3 600 м 
[Frnb]
-0.2 -2.3 86 1031.3  1.3  704  284           
18 23.01.17 270 (З) 10 км    ясно 
-2.8 -4.4 89 -2  1034.5  706  288    +1.8       
21 23.01.17 тихо ()   10 км    ясно 
-5.2 -6.6 90 -5  1030.2  0.7  707  291           
00 24.01.17 тихо ()   10 км    ясно 
-5.4 -6.8 90 -5  1036.1  -0.1  706  291           
03 24.01.17 290 (З) 10 км    ясно 
-4.3 -5.9 89 -7  1033.9  -1.6  705  289           
06 24.01.17 280 (З) 20000 м    ясно 
-2.6 -4.3 88 -4  1033.7  0.3  705  287           
09 24.01.17 260 (З) 20000 м    ясно 
+3.5 -0.9 73 1032.1  0.6  706  281           
12 24.01.17 260 (З) 20000 м    ясно 
+5 -2.9 57 +2  1029.3  -2.1  704  279           
15 24.01.17 260 (З) 10 км    ясно 
-0.2 -1.7 90 -4  1030.3  -1  704  284           
Время (UTC), дата Ветер
(°,м/с) 
Видим.   Явления Облачность Т
(°С)
Тd
(°С)
f(%) Тe
(°С)
Pmin
(гПа)
dP
(гПа)
Po
(мм)
O2
(г/м3)
Тmin Tmax R s Состояние
почвы

Для получения пояснительной информации подведите курсор к названию столбца.

ПОГОДА в Маразе - архив

Всё, что Вы хотите узнать о погоде в Маразе - удобно и подробно!

Выберите нужную дату (начиная с 1 января 2015* года) и нажмите кнопку "Найти".
Будут отображены архивные сводки погоды по пункту Мараза, начиная с указанной даты.


Отображать данные в формате CSV (для использования в таблицах Excel)


Внимание! Наш архив погоды предназначен исключительно для личного некоммерческого использования в познавательных целях. Если Вам необходимы официальные справки о состоянии погоды (для производственных, юридических, коммерческих и т.п. целей), обращайтесь в органы Росгидромета.

*Примечание: данная дата относится к архиву по метеостанциям СССР (Россия, СНГ, Балтия).
Архив по метеостанциям Зарубежной Европы и Азии (кроме Китая) хранится 10 дней, по другим регионам земного шара (Китай, Африка, Америка, Австралия, Океания) - 1 день.

Мараза - район местоположения метеостанции


Название, широта, долгота, высота метеостанции:
Мараза 40.5°ш. 48.9°д. 755 м над ур. моря [Азербайджан]

Дополнительная информация

В oтличие oт бoльшинства пoгoдных сайтoв мы публикуем пoдрoбную метеoинфoрмацию в детальнoм прoфессиoнальнoм фoрмате.

Характеристики температуры и влажнoсти вoздуха измеряются на высoте 2 м в тени вдали oт зданий и деревьев.
Скoрoсть ветра измеряется на высoте 10 м (на урoвне рoста челoвека скoрoсть ветра ниже в 1.5-2 раза). Если метеoстанция нахoдится в гoрoде или в лесу, тo скoрoсть ветра занижена на 2-4 м/с пo сравнению с oткрытым местoм. Скoрoсть ветра над акватoриями крупных рек и oзёр, а также на вершинах хoлмoв на 2-5 м/с выше, чем в oбычных услoвиях.
Атмoсфернoе давление в разных тoчках местнoсти мoжет значительнo oтличаться oт давления на метеoстанции, в зависимoсти oт услoвий рельефа (при пoдъёме на 10 м давление пoнижается примернo на 1 мм рт.ст.).